Time,TemperatureF,DewpointF,PressureIn,WindDirection,WindDirectionDegrees,WindSpeedMPH,WindSpeedGustMPH,Humidity,HourlyPrecipIn,Conditions,Clouds,dailyrainin,SoftwareType,DateUTC
2013-07-27 00:12:00,71.0,42.0,-100.00,North,353,6.0,6.0,35,0.00,,,0.00,,2013-07-27 06:12:00,
2013-07-27 00:22:00,71.0,42.0,-100.00,North,353,6.0,6.0,35,0.00,,,0.00,,2013-07-27 06:22:00,
2013-07-27 00:43:00,69.0,41.0,-100.00,North,0,5.0,6.0,35,0.00,,,0.00,,2013-07-27 06:43:00,
2013-07-27 00:52:00,69.0,41.0,-100.00,North,0,5.0,6.0,35,0.00,,,0.00,,2013-07-27 06:52:00,
2013-07-27 01:00:00,69.0,40.0,-100.00,NNW,343,12.0,13.0,35,0.00,,,0.00,,2013-07-27 07:00:00,
2013-07-27 01:12:00,70.0,40.0,-100.00,North,354,6.0,7.0,34,0.00,,,0.00,,2013-07-27 07:12:00,
2013-07-27 01:22:00,70.0,40.0,-100.00,North,354,6.0,7.0,34,0.00,,,0.00,,2013-07-27 07:22:00,
2013-07-27 01:33:00,69.0,40.0,-100.00,NNW,343,12.0,13.0,35,0.00,,,0.00,,2013-07-27 07:33:00,
2013-07-27 01:44:00,69.0,40.0,-100.00,NNW,343,12.0,13.0,35,0.00,,,0.00,,2013-07-27 07:44:00,
2013-07-27 01:52:00,69.0,40.0,-100.00,NNW,343,12.0,13.0,35,0.00,,,0.00,,2013-07-27 07:52:00,
2013-07-27 02:22:00,74.0,39.0,-100.00,North,11,8.0,10.0,28,0.00,,,0.00,,2013-07-27 08:22:00,
2013-07-27 02:32:00,74.0,39.0,-100.00,North,11,8.0,10.0,28,0.00,,,0.00,,2013-07-27 08:32:00,
2013-07-27 02:43:00,70.0,40.0,-100.00,NE,45,6.0,7.0,34,0.00,,,0.00,,2013-07-27 08:43:00,
2013-07-27 02:53:00,70.0,40.0,-100.00,NE,45,6.0,7.0,34,0.00,,,0.00,,2013-07-27 08:53:00,
2013-07-27 03:02:00,70.0,40.0,-100.00,NE,45,6.0,7.0,34,0.00,,,0.00,,2013-07-27 09:02:00,
2013-07-27 03:11:00,70.0,40.0,-100.00,NE,45,6.0,7.0,34,0.00,,,0.00,,2013-07-27 09:11:00,
2013-07-27 03:22:00,71.0,41.0,-100.00,NNE,23,6.0,8.0,34,0.00,,,0.00,,2013-07-27 09:22:00,
2013-07-27 03:33:00,71.0,41.0,-100.00,NNE,23,6.0,8.0,34,0.00,,,0.00,,2013-07-27 09:33:00,
2013-07-27 03:44:00,62.0,47.0,-100.00,South,181,6.0,7.0,59,0.00,,,0.00,,2013-07-27 09:44:00,
2013-07-27 03:52:00,62.0,47.0,-100.00,South,181,6.0,7.0,59,0.00,,,0.00,,2013-07-27 09:52:00,
2013-07-27 04:22:00,64.0,49.0,-100.00,SSW,206,4.0,4.0,57,0.00,,,0.00,,2013-07-27 10:22:00,
2013-07-27 04:32:00,64.0,49.0,-100.00,SSW,206,4.0,4.0,57,0.00,,,0.00,,2013-07-27 10:32:00,
2013-07-27 04:43:00,68.0,42.0,-100.00,SSW,210,6.0,10.0,38,0.00,,,0.00,,2013-07-27 10:43:00,
2013-07-27 04:52:00,68.0,42.0,-100.00,SSW,210,6.0,10.0,38,0.00,,,0.00,,2013-07-27 10:52:00,
2013-07-27 05:02:00,68.0,42.0,-100.00,SSW,210,6.0,10.0,38,0.00,,,0.00,,2013-07-27 11:02:00,
2013-07-27 05:22:00,70.0,42.0,-100.00,North,7,5.0,6.0,36,0.00,,,0.00,,2013-07-27 11:22:00,
2013-07-27 05:32:00,70.0,42.0,-100.00,North,7,5.0,6.0,36,0.00,,,0.00,,2013-07-27 11:32:00,
2013-07-27 05:43:00,70.0,42.0,-100.00,North,7,5.0,6.0,36,0.00,,,0.00,,2013-07-27 11:43:00,
2013-07-27 06:02:00,71.0,41.0,-100.00,NW,326,9.0,10.0,34,0.00,,,0.00,,2013-07-27 12:02:00,
2013-07-27 06:12:00,71.0,41.0,-100.00,NW,326,9.0,10.0,34,0.00,,,0.00,,2013-07-27 12:12:00,
2013-07-27 06:22:00,71.0,41.0,-100.00,NW,326,9.0,10.0,34,0.00,,,0.00,,2013-07-27 12:22:00,
2013-07-27 06:43:00,73.0,40.0,-100.00,NNW,340,6.0,7.0,30,0.00,,,0.00,,2013-07-27 12:43:00,
2013-07-27 06:52:00,73.0,40.0,-100.00,NNW,340,6.0,7.0,30,0.00,,,0.00,,2013-07-27 12:52:00,
2013-07-27 07:02:00,73.0,41.0,-100.00,WSW,248,6.0,6.0,31,0.00,,,0.00,,2013-07-27 13:02:00,
2013-07-27 07:12:00,73.0,41.0,-100.00,WSW,248,6.0,6.0,31,0.00,,,0.00,,2013-07-27 13:12:00,
2013-07-27 07:22:00,73.0,41.0,-100.00,WSW,248,6.0,6.0,31,0.00,,,0.00,,2013-07-27 13:22:00,
2013-07-27 07:44:00,66.0,48.0,-100.00,SSW,198,3.0,5.0,52,0.00,,,0.00,,2013-07-27 13:44:00,
2013-07-27 07:53:00,66.0,48.0,-100.00,SSW,198,3.0,5.0,52,0.00,,,0.00,,2013-07-27 13:53:00,
2013-07-27 08:02:00,66.0,48.0,-100.00,SW,224,7.0,8.0,52,0.00,,,0.00,,2013-07-27 14:02:00,
2013-07-27 08:11:00,66.0,48.0,-100.00,SW,224,7.0,8.0,52,0.00,,,0.00,,2013-07-27 14:11:00,
2013-07-27 08:22:00,66.0,48.0,-100.00,SW,224,7.0,8.0,52,0.00,,,0.00,,2013-07-27 14:22:00,
2013-07-27 08:32:00,68.0,46.0,-100.00,SW,220,6.0,7.0,45,0.00,,,0.00,,2013-07-27 14:32:00,
2013-07-27 08:44:00,68.0,46.0,-100.00,SW,220,6.0,7.0,45,0.00,,,0.00,,2013-07-27 14:44:00,
2013-07-27 08:54:00,68.0,46.0,-100.00,SW,220,6.0,7.0,45,0.00,,,0.00,,2013-07-27 14:54:00,
2013-07-27 09:12:00,66.0,51.0,-100.00,South,181,6.0,9.0,59,0.00,,,0.00,,2013-07-27 15:12:00,
2013-07-27 09:22:00,66.0,51.0,-100.00,South,181,6.0,9.0,59,0.00,,,0.00,,2013-07-27 15:22:00,
2013-07-27 09:33:00,67.0,51.0,-100.00,SW,217,8.0,12.0,56,0.00,,,0.00,,2013-07-27 15:33:00,
2013-07-27 09:44:00,67.0,51.0,-100.00,SW,217,8.0,12.0,56,0.00,,,0.00,,2013-07-27 15:44:00,
2013-07-27 09:53:00,67.0,51.0,-100.00,SW,217,8.0,12.0,56,0.00,,,0.00,,2013-07-27 15:53:00,
2013-07-27 10:02:00,70.0,49.0,-100.00,West,272,13.0,16.0,47,0.00,,,0.00,,2013-07-27 16:02:00,
2013-07-27 10:12:00,70.0,49.0,-100.00,West,272,13.0,16.0,47,0.00,,,0.00,,2013-07-27 16:12:00,
2013-07-27 10:22:00,70.0,49.0,-100.00,West,272,13.0,16.0,47,0.00,,,0.00,,2013-07-27 16:22:00,
2013-07-27 10:43:00,71.0,50.0,-100.00,WNW,296,8.0,9.0,48,0.00,,,0.00,,2013-07-27 16:43:00,
2013-07-27 10:54:00,71.0,50.0,-100.00,WNW,296,8.0,9.0,48,0.00,,,0.00,,2013-07-27 16:54:00,
2013-07-27 11:00:00,71.0,53.0,-100.00,WNW,292,10.0,11.0,54,0.00,,,0.00,,2013-07-27 17:00:00,
2013-07-27 11:02:00,73.0,50.0,-100.00,NW,318,11.0,13.0,44,0.00,,,0.00,,2013-07-27 17:02:00,
2013-07-27 11:12:00,73.0,50.0,-100.00,NW,318,11.0,13.0,44,0.00,,,0.00,,2013-07-27 17:12:00,
2013-07-27 11:22:00,73.0,50.0,-100.00,NW,318,11.0,13.0,44,0.00,,,0.00,,2013-07-27 17:22:00,
2013-07-27 11:32:00,71.0,53.0,-100.00,WNW,292,10.0,11.0,54,0.00,,,0.00,,2013-07-27 17:32:00,
2013-07-27 11:43:00,71.0,53.0,-100.00,WNW,292,10.0,11.0,54,0.00,,,0.00,,2013-07-27 17:43:00,
2013-07-27 11:53:00,71.0,53.0,-100.00,WNW,292,10.0,11.0,54,0.00,,,0.00,,2013-07-27 17:53:00,
2013-07-27 12:43:00,71.0,55.0,-100.00,SSE,161,2.0,3.0,56,0.00,,,0.02,,2013-07-27 18:43:00,
2013-07-27 12:53:00,71.0,55.0,-100.00,SSE,161,2.0,3.0,56,0.00,,,0.02,,2013-07-27 18:53:00,
2013-07-27 13:02:00,71.0,55.0,-100.00,SSE,161,2.0,3.0,56,0.00,,,0.02,,2013-07-27 19:02:00,
2013-07-27 13:22:00,74.0,57.0,-100.00,ESE,103,6.0,8.0,54,0.00,,,0.02,,2013-07-27 19:22:00,
2013-07-27 13:32:00,74.0,57.0,-100.00,ESE,103,6.0,8.0,54,0.00,,,0.02,,2013-07-27 19:32:00,
2013-07-27 13:43:00,74.0,54.0,-100.00,SE,133,12.0,15.0,49,0.00,,,0.02,,2013-07-27 19:43:00,
2013-07-27 13:53:00,74.0,54.0,-100.00,SE,133,12.0,15.0,49,0.00,,,0.02,,2013-07-27 19:53:00,
2013-07-27 14:02:00,74.0,54.0,-100.00,SE,133,12.0,15.0,49,0.00,,,0.02,,2013-07-27 20:02:00,
2013-07-27 14:22:00,75.0,52.0,-100.00,SE,128,11.0,14.0,44,0.00,,,0.02,,2013-07-27 20:22:00,
2013-07-27 14:32:00,75.0,52.0,-100.00,SE,128,11.0,14.0,44,0.00,,,0.02,,2013-07-27 20:32:00,
2013-07-27 14:52:00,76.0,51.0,-100.00,SE,127,12.0,17.0,42,0.00,,,0.02,,2013-07-27 20:52:00,
2013-07-27 15:02:00,76.0,51.0,-100.00,SE,127,12.0,17.0,42,0.00,,,0.02,,2013-07-27 21:02:00,
2013-07-27 15:12:00,76.0,51.0,-100.00,SE,127,12.0,17.0,42,0.00,,,0.02,,2013-07-27 21:12:00,
2013-07-27 15:43:00,80.0,50.0,-100.00,SE,144,10.0,15.0,35,0.00,,,0.02,,2013-07-27 21:43:00,
2013-07-27 15:53:00,80.0,50.0,-100.00,SE,144,10.0,15.0,35,0.00,,,0.02,,2013-07-27 21:53:00,
2013-07-27 16:02:00,80.0,50.0,-100.00,SE,144,10.0,15.0,35,0.00,,,0.02,,2013-07-27 22:02:00,
2013-07-27 16:32:00,80.0,50.0,-100.00,SE,134,9.0,12.0,35,0.00,,,0.02,,2013-07-27 22:32:00,
2013-07-27 16:43:00,80.0,50.0,-100.00,SE,134,9.0,12.0,35,0.00,,,0.02,,2013-07-27 22:43:00,
2013-07-27 16:53:00,80.0,50.0,-100.00,SE,134,9.0,12.0,35,0.00,,,0.02,,2013-07-27 22:53:00,
2013-07-27 17:02:00,81.0,47.0,-100.00,SE,140,10.0,12.0,29,0.00,,,0.02,,2013-07-27 23:02:00,
2013-07-27 17:12:00,81.0,47.0,-100.00,SE,140,10.0,12.0,29,0.00,,,0.02,,2013-07-27 23:12:00,
2013-07-27 17:22:00,81.0,47.0,-100.00,SE,140,10.0,12.0,29,0.00,,,0.02,,2013-07-27 23:22:00,
2013-07-27 17:44:00,85.0,44.0,-100.00,South,182,2.0,4.0,24,0.00,,,0.02,,2013-07-27 23:44:00,
2013-07-27 18:02:00,74.0,53.0,-100.00,NE,40,13.0,16.0,48,0.00,,,0.02,,2013-07-28 00:02:00,
2013-07-27 18:12:00,74.0,53.0,-100.00,NE,40,13.0,16.0,48,0.00,,,0.02,,2013-07-28 00:12:00,
2013-07-27 18:22:00,74.0,53.0,-100.00,NE,40,13.0,16.0,48,0.00,,,0.02,,2013-07-28 00:22:00,
2013-07-27 18:32:00,74.0,52.0,-100.00,NE,38,16.0,21.0,47,0.00,,,0.02,,2013-07-28 00:32:00,
2013-07-27 18:44:00,74.0,52.0,-100.00,NE,38,16.0,21.0,47,0.00,,,0.02,,2013-07-28 00:44:00,
2013-07-27 19:02:00,69.0,54.0,-100.00,NE,35,19.0,23.0,58,0.00,,,0.02,,2013-07-28 01:02:00,
2013-07-27 19:12:00,69.0,54.0,-100.00,NE,35,19.0,23.0,58,0.00,,,0.02,,2013-07-28 01:12:00,
2013-07-27 19:53:00,65.0,57.0,-100.00,ENE,68,20.0,24.0,76,0.00,,,0.02,,2013-07-28 01:53:00,
2013-07-27 20:22:00,64.0,57.0,-100.00,NE,56,11.0,14.0,76,0.00,,,0.02,,2013-07-28 02:22:00,
2013-07-27 20:32:00,65.0,56.0,-100.00,NE,34,9.0,12.0,73,0.00,,,0.02,,2013-07-28 02:32:00,
2013-07-27 20:42:00,65.0,56.0,-100.00,NE,34,9.0,12.0,73,0.00,,,0.02,,2013-07-28 02:42:00,
2013-07-27 20:53:00,65.0,56.0,-100.00,NE,34,9.0,12.0,73,0.00,,,0.02,,2013-07-28 02:53:00,
2013-07-27 21:02:00,65.0,55.0,-100.00,NNE,32,8.0,10.0,70,0.00,,,0.02,,2013-07-28 03:02:00,
2013-07-27 21:12:00,65.0,55.0,-100.00,NNE,32,8.0,10.0,70,0.00,,,0.02,,2013-07-28 03:12:00,
2013-07-27 21:22:00,65.0,55.0,-100.00,NNE,32,8.0,10.0,70,0.00,,,0.02,,2013-07-28 03:22:00,
2013-07-27 21:32:00,63.0,57.0,-100.00,NNW,344,7.0,9.0,81,0.00,,,0.02,,2013-07-28 03:32:00,
2013-07-27 21:42:00,63.0,57.0,-100.00,NNW,344,7.0,9.0,81,0.00,,,0.02,,2013-07-28 03:42:00,
2013-07-27 21:53:00,63.0,57.0,-100.00,NNW,344,7.0,9.0,81,0.00,,,0.02,,2013-07-28 03:53:00,
2013-07-27 22:22:00,61.0,56.0,-100.00,North,357,7.0,8.0,86,0.00,,,0.02,,2013-07-28 04:22:00,
2013-07-27 22:43:00,60.0,56.0,-100.00,North,360,10.0,13.0,86,0.00,,,0.02,,2013-07-28 04:43:00,
2013-07-27 22:53:00,61.0,57.0,-100.00,North,7,9.0,11.0,86,0.00,,,0.02,,2013-07-28 04:53:00,
2013-07-27 23:02:00,61.0,57.0,-100.00,North,7,9.0,11.0,86,0.00,,,0.02,,2013-07-28 05:02:00,
2013-07-27 23:12:00,61.0,56.0,-100.00,NNE,18,9.0,11.0,84,0.00,,,0.02,,2013-07-28 05:12:00,
2013-07-27 23:22:00,61.0,56.0,-100.00,NNE,18,9.0,11.0,84,0.00,,,0.02,,2013-07-28 05:22:00,
2013-07-27 23:32:00,61.0,56.0,-100.00,NNE,18,9.0,11.0,84,0.00,,,0.02,,2013-07-28 05:32:00,
2013-07-27 23:43:00,62.0,55.0,-100.00,NNE,14,10.0,12.0,78,0.00,,,0.02,,2013-07-28 05:43:00,
2013-07-27 23:53:00,62.0,55.0,-100.00,NNE,14,10.0,12.0,78,0.00,,,0.02,,2013-07-28 05:53:00,